Time,TemperatureF,DewpointF,PressureIn,WindDirection,WindDirectionDegrees,WindSpeedMPH,WindSpeedGustMPH,Humidity,HourlyPrecipIn,Conditions,Clouds,dailyrainin,SoftwareType,DateUTC
2013-09-29 00:01:00,67.8,50.6,29.97,WSW,248,0.9,2.5,54,0.00,,---,0.00,VWS V14.00,2013-09-29 04:01:00,
2013-09-29 00:02:00,67.8,50.6,29.97,SE,135,0.0,0.0,54,0.00,,---,0.00,VWS V14.00,2013-09-29 04:02:00,
2013-09-29 00:07:00,67.8,50.6,29.97,WNW,292,0.9,0.9,54,0.00,,---,0.00,VWS V14.00,2013-09-29 04:07:00,
2013-09-29 00:13:00,67.6,50.4,29.97,ESE,112,0.9,1.1,54,0.00,,---,0.00,VWS V14.00,2013-09-29 04:13:00,
2013-09-29 00:18:00,67.6,50.9,29.97,SSE,158,0.0,2.0,55,0.00,,---,0.00,VWS V14.00,2013-09-29 04:18:00,
2013-09-29 00:23:00,67.6,50.9,29.94,SSE,158,2.0,2.5,55,0.00,,---,0.00,VWS V14.00,2013-09-29 04:23:00,
2013-09-29 00:28:00,67.6,50.9,29.94,South,180,1.1,2.0,55,0.00,,---,0.00,VWS V14.00,2013-09-29 04:28:00,
2013-09-29 00:33:00,67.6,50.9,29.94,South,180,0.0,0.0,55,0.00,,---,0.00,VWS V14.00,2013-09-29 04:33:00,
2013-09-29 00:38:00,67.6,51.4,29.94,ESE,112,1.1,1.1,56,0.00,,---,0.00,VWS V14.00,2013-09-29 04:38:00,
2013-09-29 00:43:00,67.6,51.4,29.94,WSW,248,0.9,0.9,56,0.00,,---,0.00,VWS V14.00,2013-09-29 04:43:00,
2013-09-29 00:48:00,67.6,51.4,29.94,SSE,158,2.0,2.7,56,0.00,,---,0.00,VWS V14.00,2013-09-29 04:48:00,
2013-09-29 00:53:00,67.6,51.9,29.94,SE,135,0.0,0.0,57,0.00,,---,0.00,VWS V14.00,2013-09-29 04:53:00,
2013-09-29 00:58:00,67.6,51.9,29.94,SSE,158,1.3,2.7,57,0.00,,---,0.00,VWS V14.00,2013-09-29 04:58:00,
2013-09-29 01:03:00,67.6,51.9,29.94,SE,135,0.0,0.0,57,0.00,,---,0.00,VWS V14.00,2013-09-29 05:03:00,
2013-09-29 01:08:00,67.6,51.9,29.94,SSW,202,0.0,0.0,57,0.00,,---,0.00,VWS V14.00,2013-09-29 05:08:00,
2013-09-29 01:13:00,67.8,52.5,29.94,SE,135,0.9,2.0,58,0.00,,---,0.00,VWS V14.00,2013-09-29 05:13:00,
2013-09-29 01:18:00,67.8,52.5,29.94,SSE,158,4.9,4.9,58,0.00,,---,0.00,VWS V14.00,2013-09-29 05:18:00,
2013-09-29 01:24:00,67.8,52.5,29.94,SE,135,0.0,0.0,58,0.00,,---,0.00,VWS V14.00,2013-09-29 05:24:00,
2013-09-29 01:29:00,67.8,52.5,29.94,SSW,202,0.0,0.0,58,0.00,,---,0.00,VWS V14.00,2013-09-29 05:29:00,
2013-09-29 01:34:00,67.6,52.3,29.94,NW,315,1.1,1.3,58,0.00,,---,0.00,VWS V14.00,2013-09-29 05:34:00,
2013-09-29 01:39:00,67.6,52.8,29.94,SSE,158,0.0,0.0,59,0.00,,---,0.00,VWS V14.00,2013-09-29 05:39:00,
2013-09-29 01:44:00,67.6,52.8,29.94,WSW,248,0.9,2.7,59,0.00,,---,0.00,VWS V14.00,2013-09-29 05:44:00,
2013-09-29 01:49:00,67.6,52.8,29.94,SE,135,0.0,1.3,59,0.00,,---,0.00,VWS V14.00,2013-09-29 05:49:00,
2013-09-29 01:54:00,67.6,52.8,29.94,South,180,0.0,0.0,59,0.00,,---,0.00,VWS V14.00,2013-09-29 05:54:00,
2013-09-29 01:59:00,67.5,53.1,29.94,SSE,158,1.3,4.0,60,0.00,,---,0.00,VWS V14.00,2013-09-29 05:59:00,
2013-09-29 02:04:00,67.5,53.1,29.94,South,180,0.0,0.0,60,0.00,,---,0.00,VWS V14.00,2013-09-29 06:04:00,
2013-09-29 02:09:00,67.5,53.1,29.91,SSE,158,0.0,0.0,60,0.00,,---,0.00,VWS V14.00,2013-09-29 06:09:00,
2013-09-29 02:14:00,67.5,53.1,29.91,South,180,0.0,0.9,60,0.00,,---,0.00,VWS V14.00,2013-09-29 06:14:00,
2013-09-29 02:19:00,67.5,53.6,29.91,SE,135,3.4,3.4,61,0.00,,---,0.00,VWS V14.00,2013-09-29 06:19:00,
2013-09-29 02:24:00,67.5,53.6,29.91,SE,135,0.0,1.3,61,0.00,,---,0.00,VWS V14.00,2013-09-29 06:24:00,
2013-09-29 02:29:00,67.3,53.4,29.91,SSW,202,0.0,0.0,61,0.00,,---,0.00,VWS V14.00,2013-09-29 06:29:00,
2013-09-29 02:34:00,67.1,53.2,29.91,SSW,202,0.0,0.9,61,0.00,,---,0.00,VWS V14.00,2013-09-29 06:34:00,
2013-09-29 02:39:00,67.1,53.2,29.94,SSE,158,1.6,1.6,61,0.00,,---,0.00,VWS V14.00,2013-09-29 06:39:00,
2013-09-29 02:44:00,67.1,53.7,29.94,SE,135,1.1,1.1,62,0.00,,---,0.00,VWS V14.00,2013-09-29 06:44:00,
2013-09-29 02:49:00,67.1,53.7,29.94,South,180,0.0,0.0,62,0.00,,---,0.00,VWS V14.00,2013-09-29 06:49:00,
2013-09-29 02:54:00,67.1,54.1,29.91,SSE,158,1.1,2.5,63,0.00,,---,0.00,VWS V14.00,2013-09-29 06:54:00,
2013-09-29 02:59:00,67.1,53.7,29.91,SSW,202,1.3,1.3,62,0.00,,---,0.00,VWS V14.00,2013-09-29 06:59:00,
2013-09-29 03:04:00,67.1,53.7,29.91,South,180,1.3,1.6,62,0.00,,---,0.00,VWS V14.00,2013-09-29 07:04:00,
2013-09-29 03:09:00,67.1,54.1,29.91,SE,135,0.9,0.9,63,0.00,,---,0.00,VWS V14.00,2013-09-29 07:09:00,
2013-09-29 03:14:00,67.3,54.3,29.91,South,180,0.0,1.1,63,0.00,,---,0.00,VWS V14.00,2013-09-29 07:14:00,
2013-09-29 03:19:00,67.3,54.3,29.91,South,180,1.3,2.5,63,0.00,,---,0.00,VWS V14.00,2013-09-29 07:19:00,
2013-09-29 03:24:00,67.3,54.3,29.91,SSE,158,0.0,0.9,63,0.00,,---,0.00,VWS V14.00,2013-09-29 07:24:00,
2013-09-29 03:29:00,67.3,54.3,29.91,WSW,248,1.1,2.0,63,0.00,,---,0.00,VWS V14.00,2013-09-29 07:29:00,
2013-09-29 03:34:00,67.3,54.3,29.91,South,180,0.0,0.9,63,0.00,,---,0.00,VWS V14.00,2013-09-29 07:34:00,
2013-09-29 03:39:00,67.3,54.3,29.91,West,270,0.0,0.9,63,0.00,,---,0.00,VWS V14.00,2013-09-29 07:39:00,
2013-09-29 03:44:00,67.3,54.3,29.91,SSW,202,1.6,1.6,63,0.00,,---,0.00,VWS V14.00,2013-09-29 07:44:00,
2013-09-29 03:49:00,67.3,54.3,29.91,South,180,0.0,0.0,63,0.00,,---,0.00,VWS V14.00,2013-09-29 07:49:00,
2013-09-29 03:54:00,67.3,54.3,29.88,SE,135,0.0,0.0,63,0.00,,---,0.00,VWS V14.00,2013-09-29 07:54:00,
2013-09-29 03:59:00,67.5,54.4,29.88,SSW,202,1.3,1.3,63,0.00,,---,0.00,VWS V14.00,2013-09-29 07:59:00,
2013-09-29 04:05:00,67.5,54.4,29.88,South,180,0.0,0.0,63,0.00,,---,0.00,VWS V14.00,2013-09-29 08:05:00,
2013-09-29 04:10:00,67.5,54.4,29.91,SSE,158,0.0,0.9,63,0.00,,---,0.00,VWS V14.00,2013-09-29 08:10:00,
2013-09-29 04:15:00,67.5,54.4,29.91,SSW,202,0.0,0.0,63,0.00,,---,0.00,VWS V14.00,2013-09-29 08:15:00,
2013-09-29 04:20:00,67.3,54.3,29.91,SSW,202,1.3,1.3,63,0.00,,---,0.00,VWS V14.00,2013-09-29 08:20:00,
2013-09-29 04:25:00,67.3,54.7,29.91,SSW,202,0.0,0.0,64,0.00,,---,0.00,VWS V14.00,2013-09-29 08:25:00,
2013-09-29 04:30:00,67.3,54.7,29.91,WSW,248,1.6,1.6,64,0.00,,---,0.00,VWS V14.00,2013-09-29 08:30:00,
2013-09-29 04:35:00,67.3,54.7,29.91,WSW,248,1.1,1.1,64,0.00,,---,0.00,VWS V14.00,2013-09-29 08:35:00,
2013-09-29 04:40:00,67.5,54.9,29.91,WNW,292,0.9,1.3,64,0.00,,---,0.00,VWS V14.00,2013-09-29 08:40:00,
2013-09-29 04:45:00,67.6,55.0,29.91,NE,45,1.6,3.4,64,0.00,,---,0.00,VWS V14.00,2013-09-29 08:45:00,
2013-09-29 04:51:00,67.8,55.2,29.91,WSW,248,1.1,1.6,64,0.00,,---,0.00,VWS V14.00,2013-09-29 08:51:00,
2013-09-29 04:56:00,68.0,55.8,29.91,West,270,1.1,1.1,65,0.00,,---,0.00,VWS V14.00,2013-09-29 08:56:00,
2013-09-29 05:01:00,68.0,55.8,29.91,WSW,248,2.5,3.4,65,0.00,,---,0.00,VWS V14.00,2013-09-29 09:01:00,
2013-09-29 05:06:00,68.0,56.2,29.91,SSW,202,2.0,2.7,66,0.00,,---,0.00,VWS V14.00,2013-09-29 09:06:00,
2013-09-29 05:11:00,67.8,56.5,29.91,SSW,202,1.3,1.3,67,0.00,,---,0.00,VWS V14.00,2013-09-29 09:11:00,
2013-09-29 05:16:00,67.6,56.7,29.91,WNW,292,3.8,3.8,68,0.00,,---,0.00,VWS V14.00,2013-09-29 09:16:00,
2013-09-29 05:21:00,67.3,56.8,29.91,South,180,2.5,2.9,69,0.00,,---,0.00,VWS V14.00,2013-09-29 09:21:00,
2013-09-29 05:26:00,66.9,56.4,29.91,West,270,1.3,4.0,69,0.00,,---,0.00,VWS V14.00,2013-09-29 09:26:00,
2013-09-29 05:31:00,66.6,56.5,29.91,WSW,248,1.6,2.9,70,0.00,,---,0.00,VWS V14.00,2013-09-29 09:31:00,
2013-09-29 05:36:00,66.0,56.7,29.91,SSW,202,1.6,1.6,72,0.00,,---,0.00,VWS V14.00,2013-09-29 09:36:00,
2013-09-29 05:41:00,65.7,57.2,29.91,SW,225,2.9,2.9,74,0.00,,---,0.00,VWS V14.00,2013-09-29 09:41:00,
2013-09-29 05:46:00,65.5,57.7,29.91,West,270,1.1,1.3,76,0.00,,---,0.00,VWS V14.00,2013-09-29 09:46:00,
2013-09-29 05:51:00,65.1,57.7,29.91,WSW,248,1.1,1.1,77,0.00,,---,0.00,VWS V14.00,2013-09-29 09:51:00,
2013-09-29 05:56:00,64.9,57.9,29.91,WSW,248,1.1,1.6,78,0.00,,---,0.00,VWS V14.00,2013-09-29 09:56:00,
2013-09-29 06:01:00,64.8,58.5,29.91,WSW,248,0.0,1.1,80,0.00,,---,0.00,VWS V14.00,2013-09-29 10:01:00,
2013-09-29 06:06:00,64.6,59.0,29.91,West,270,0.0,0.0,82,0.00,,---,0.00,VWS V14.00,2013-09-29 10:06:00,
2013-09-29 06:11:00,64.4,58.8,29.91,SSW,202,0.9,0.9,82,0.00,,---,0.00,VWS V14.00,2013-09-29 10:11:00,
2013-09-29 06:16:00,64.2,59.0,29.91,SSW,202,0.0,0.0,83,0.00,,---,0.00,VWS V14.00,2013-09-29 10:16:00,
2013-09-29 06:21:00,64.0,58.8,29.91,SSW,202,0.0,0.0,83,0.00,,---,0.00,VWS V14.00,2013-09-29 10:21:00,
2013-09-29 06:26:00,64.0,59.8,29.91,SSW,202,0.0,0.0,86,0.00,,---,0.00,VWS V14.00,2013-09-29 10:26:00,
2013-09-29 06:32:00,63.9,59.3,29.91,West,270,0.0,0.0,85,0.00,,---,0.00,VWS V14.00,2013-09-29 10:32:00,
2013-09-29 06:37:00,63.9,59.6,29.91,NW,315,0.0,1.1,86,0.00,,---,0.00,VWS V14.00,2013-09-29 10:37:00,
2013-09-29 06:42:00,63.7,59.7,29.91,NNE,22,2.9,2.9,87,0.00,,---,0.00,VWS V14.00,2013-09-29 10:42:00,
2013-09-29 06:47:00,63.1,58.9,29.91,West,270,0.0,0.0,86,0.00,,---,0.00,VWS V14.00,2013-09-29 10:47:00,
2013-09-29 06:52:00,62.6,58.4,29.91,NNE,22,0.0,0.0,86,0.00,,---,0.00,VWS V14.00,2013-09-29 10:52:00,
2013-09-29 06:57:00,62.2,58.3,29.94,West,270,1.6,1.6,87,0.00,,---,0.00,VWS V14.00,2013-09-29 10:57:00,
2013-09-29 07:02:00,61.9,57.7,29.94,West,270,0.0,0.0,86,0.00,,---,0.00,VWS V14.00,2013-09-29 11:02:00,
2013-09-29 07:07:00,61.3,57.1,29.94,NNE,22,0.0,0.0,86,0.00,,---,0.00,VWS V14.00,2013-09-29 11:07:00,
2013-09-29 07:12:00,60.8,56.6,29.94,North,0,0.0,0.0,86,0.00,,---,0.00,VWS V14.00,2013-09-29 11:12:00,
2013-09-29 07:17:00,60.4,56.2,29.94,West,270,0.0,0.0,86,0.00,,---,0.00,VWS V14.00,2013-09-29 11:17:00,
2013-09-29 07:22:00,60.3,56.4,29.94,WNW,292,0.0,0.0,87,0.00,,---,0.00,VWS V14.00,2013-09-29 11:22:00,
2013-09-29 07:27:00,59.7,55.5,29.94,NNW,338,0.0,0.0,86,0.00,,---,0.00,VWS V14.00,2013-09-29 11:27:00,
2013-09-29 07:32:00,59.5,55.7,29.94,West,270,0.0,0.0,87,0.00,,---,0.00,VWS V14.00,2013-09-29 11:32:00,
2013-09-29 07:38:00,59.4,55.5,29.94,NNW,338,0.0,0.0,87,0.00,,---,0.00,VWS V14.00,2013-09-29 11:38:00,
2013-09-29 07:43:00,59.2,55.6,29.91,ENE,68,0.0,1.1,88,0.00,,---,0.00,VWS V14.00,2013-09-29 11:43:00,
2013-09-29 07:48:00,59.0,55.5,29.91,WNW,292,0.0,0.0,88,0.00,,---,0.00,VWS V14.00,2013-09-29 11:48:00,
2013-09-29 07:53:00,58.8,55.9,29.97,North,0,0.0,0.0,90,0.00,,---,0.00,VWS V14.00,2013-09-29 11:53:00,
2013-09-29 07:58:00,58.5,55.5,29.97,WSW,248,0.0,1.1,90,0.00,,---,0.00,VWS V14.00,2013-09-29 11:58:00,
2013-09-29 08:03:00,58.5,55.5,29.97,NNE,22,1.6,1.6,90,0.00,,---,0.00,VWS V14.00,2013-09-29 12:03:00,
2013-09-29 08:08:00,58.1,55.5,29.94,South,180,0.0,1.1,91,0.00,,---,0.00,VWS V14.00,2013-09-29 12:08:00,
2013-09-29 08:13:00,58.1,55.5,29.94,North,0,0.0,2.2,91,0.00,,---,0.00,VWS V14.00,2013-09-29 12:13:00,
2013-09-29 08:18:00,57.9,55.3,29.94,NE,45,0.0,0.0,91,0.00,,---,0.00,VWS V14.00,2013-09-29 12:18:00,
2013-09-29 08:23:00,57.9,55.3,29.94,WNW,292,0.0,0.0,91,0.00,,---,0.00,VWS V14.00,2013-09-29 12:23:00,
2013-09-29 08:28:00,57.7,55.1,29.94,ENE,68,0.0,0.0,91,0.00,,---,0.00,VWS V14.00,2013-09-29 12:28:00,
2013-09-29 08:33:00,57.7,55.1,29.94,NNW,338,0.0,0.0,91,0.00,,---,0.00,VWS V14.00,2013-09-29 12:33:00,
2013-09-29 08:38:00,57.7,55.1,29.97,WNW,292,0.0,0.0,91,0.00,,---,0.00,VWS V14.00,2013-09-29 12:38:00,
2013-09-29 08:43:00,57.7,55.1,29.97,West,270,0.0,0.0,91,0.00,,---,0.00,VWS V14.00,2013-09-29 12:43:00,
2013-09-29 08:48:00,57.6,55.3,29.97,West,270,0.0,2.2,92,0.00,,---,0.00,VWS V14.00,2013-09-29 12:48:00,
2013-09-29 08:54:00,57.6,55.3,29.97,NW,315,0.0,0.0,92,0.00,,---,0.00,VWS V14.00,2013-09-29 12:54:00,
2013-09-29 08:59:00,57.7,55.4,29.97,NNW,338,1.1,1.1,92,0.00,,---,0.00,VWS V14.00,2013-09-29 12:59:00,
2013-09-29 09:04:00,57.7,55.4,29.97,North,0,0.0,0.0,92,0.00,,---,0.00,VWS V14.00,2013-09-29 13:04:00,
2013-09-29 09:09:00,57.7,55.4,29.97,NE,45,0.0,0.0,92,0.00,,---,0.00,VWS V14.00,2013-09-29 13:09:00,
2013-09-29 09:14:00,57.6,55.3,29.97,North,0,0.0,0.0,92,0.00,,---,0.00,VWS V14.00,2013-09-29 13:14:00,
2013-09-29 09:19:00,57.6,55.3,29.97,NNW,338,0.0,1.1,92,0.00,,---,0.00,VWS V14.00,2013-09-29 13:19:00,
2013-09-29 09:24:00,57.6,55.0,29.97,NE,45,0.0,0.0,91,0.00,,---,0.00,VWS V14.00,2013-09-29 13:24:00,
2013-09-29 09:29:00,57.6,55.0,29.97,WNW,292,0.0,0.0,91,0.00,,---,0.00,VWS V14.00,2013-09-29 13:29:00,
2013-09-29 09:34:00,57.6,55.0,29.97,North,0,0.0,0.9,91,0.00,,---,0.00,VWS V14.00,2013-09-29 13:34:00,
2013-09-29 09:39:00,57.6,55.0,29.97,North,0,0.0,0.0,91,0.00,,---,0.00,VWS V14.00,2013-09-29 13:39:00,
2013-09-29 09:44:00,57.7,55.1,29.97,North,0,0.0,0.0,91,0.00,,---,0.00,VWS V14.00,2013-09-29 13:44:00,
2013-09-29 09:49:00,57.9,55.0,29.97,West,270,2.2,2.2,90,0.00,,---,0.00,VWS V14.00,2013-09-29 13:49:00,
2013-09-29 09:54:00,58.1,55.2,29.97,NW,315,0.0,0.0,90,0.00,,---,0.00,VWS V14.00,2013-09-29 13:54:00,
2013-09-29 09:59:00,58.1,55.2,29.97,WSW,248,0.0,2.0,90,0.00,,---,0.00,VWS V14.00,2013-09-29 13:59:00,
2013-09-29 10:05:00,58.3,55.4,29.97,West,270,0.0,0.0,90,0.00,,---,0.00,VWS V14.00,2013-09-29 14:05:00,
2013-09-29 10:10:00,58.5,55.5,29.97,NW,315,0.0,0.0,90,0.00,,---,0.00,VWS V14.00,2013-09-29 14:10:00,
2013-09-29 10:15:00,58.5,55.2,29.97,NNE,22,0.0,0.0,89,0.00,,---,0.00,VWS V14.00,2013-09-29 14:15:00,
2013-09-29 10:20:00,58.8,55.6,29.97,North,0,0.0,0.0,89,0.00,,---,0.00,VWS V14.00,2013-09-29 14:20:00,
2013-09-29 10:25:00,58.8,55.3,30.00,NNE,22,1.6,1.6,88,0.00,,---,0.00,VWS V14.00,2013-09-29 14:25:00,
2013-09-29 10:30:00,58.8,55.0,30.00,WNW,292,1.6,1.6,87,0.00,,---,0.00,VWS V14.00,2013-09-29 14:30:00,
2013-09-29 10:35:00,58.8,54.7,30.00,NNW,338,0.0,1.6,86,0.00,,---,0.00,VWS V14.00,2013-09-29 14:35:00,
2013-09-29 10:40:00,58.8,54.3,30.00,NNW,338,0.0,0.0,85,0.00,,---,0.00,VWS V14.00,2013-09-29 14:40:00,
2013-09-29 10:45:00,59.0,54.5,30.00,NNE,22,0.0,0.0,85,0.00,,---,0.00,VWS V14.00,2013-09-29 14:45:00,
2013-09-29 10:50:00,59.2,54.7,30.00,WNW,292,0.0,0.0,85,0.00,,---,0.00,VWS V14.00,2013-09-29 14:50:00,
2013-09-29 10:55:00,59.4,54.5,30.00,West,270,0.0,0.0,84,0.00,,---,0.00,VWS V14.00,2013-09-29 14:55:00,
2013-09-29 11:00:00,59.2,54.4,30.00,West,270,0.0,0.0,84,0.00,,---,0.00,VWS V14.00,2013-09-29 15:00:00,
2013-09-29 11:05:00,59.0,53.8,30.00,North,0,0.0,0.0,83,0.00,,---,0.00,VWS V14.00,2013-09-29 15:05:00,
2013-09-29 11:10:00,59.0,53.5,30.03,North,0,2.5,2.5,82,0.00,,---,0.00,VWS V14.00,2013-09-29 15:10:00,
2013-09-29 11:15:00,59.0,53.2,30.03,NNW,338,0.0,1.1,81,0.00,,---,0.00,VWS V14.00,2013-09-29 15:15:00,
2013-09-29 11:21:00,59.2,53.4,30.03,North,0,2.0,2.0,81,0.00,,---,0.00,VWS V14.00,2013-09-29 15:21:00,
2013-09-29 11:26:00,59.0,52.8,30.00,NNE,22,0.0,1.3,80,0.00,,---,0.00,VWS V14.00,2013-09-29 15:26:00,
2013-09-29 11:31:00,59.2,52.7,30.00,North,0,0.0,0.0,79,0.00,,---,0.00,VWS V14.00,2013-09-29 15:31:00,
2013-09-29 11:36:00,59.2,53.0,30.00,North,0,0.0,0.9,80,0.00,,---,0.00,VWS V14.00,2013-09-29 15:36:00,
2013-09-29 11:41:00,59.5,53.4,30.00,NNW,338,0.0,0.0,80,0.00,,---,0.00,VWS V14.00,2013-09-29 15:41:00,
2013-09-29 11:46:00,59.7,53.2,30.00,North,0,0.0,2.0,79,0.00,,---,0.00,VWS V14.00,2013-09-29 15:46:00,
2013-09-29 11:51:00,59.9,52.7,30.00,NE,45,0.0,2.9,77,0.00,,---,0.00,VWS V14.00,2013-09-29 15:51:00,
2013-09-29 11:56:00,60.1,52.9,30.03,WSW,248,0.0,0.9,77,0.00,,---,0.00,VWS V14.00,2013-09-29 15:56:00,
2013-09-29 12:01:00,60.4,53.6,30.03,West,270,0.0,1.6,78,0.00,,---,0.00,VWS V14.00,2013-09-29 16:01:00,
2013-09-29 12:06:00,60.6,53.4,30.03,SSW,202,0.0,0.0,77,0.00,,---,0.00,VWS V14.00,2013-09-29 16:06:00,
2013-09-29 12:11:00,60.8,52.5,30.00,North,0,0.0,0.0,74,0.00,,---,0.00,VWS V14.00,2013-09-29 16:11:00,
2013-09-29 12:16:00,60.6,51.9,30.00,NNE,22,0.0,0.0,73,0.00,,---,0.00,VWS V14.00,2013-09-29 16:16:00,
2013-09-29 12:22:00,61.0,51.9,30.00,East,90,1.1,1.1,72,0.00,,---,0.00,VWS V14.00,2013-09-29 16:22:00,
2013-09-29 12:27:00,61.0,51.5,30.03,North,0,2.2,2.2,71,0.00,,---,0.00,VWS V14.00,2013-09-29 16:27:00,
2013-09-29 12:32:00,61.2,52.1,30.03,NNE,22,0.0,0.0,72,0.00,,---,0.00,VWS V14.00,2013-09-29 16:32:00,
2013-09-29 12:37:00,61.7,52.6,30.03,NW,315,0.0,0.9,72,0.00,,---,0.00,VWS V14.00,2013-09-29 16:37:00,
2013-09-29 12:42:00,61.7,51.4,30.00,North,0,0.9,0.9,69,0.00,,---,0.00,VWS V14.00,2013-09-29 16:42:00,
2013-09-29 12:47:00,61.9,52.0,30.00,West,270,0.9,0.9,70,0.00,,---,0.00,VWS V14.00,2013-09-29 16:47:00,
2013-09-29 12:52:00,62.2,52.7,30.00,SSW,202,0.0,0.0,71,0.00,,---,0.00,VWS V14.00,2013-09-29 16:52:00,
2013-09-29 12:57:00,61.9,52.0,30.00,NE,45,0.0,0.0,70,0.00,,---,0.00,VWS V14.00,2013-09-29 16:57:00,
2013-09-29 13:02:00,61.9,51.6,30.00,North,0,0.0,0.0,69,0.00,,---,0.00,VWS V14.00,2013-09-29 17:02:00,
2013-09-29 13:07:00,61.7,51.8,30.00,WSW,248,4.5,4.5,70,0.00,,---,0.00,VWS V14.00,2013-09-29 17:07:00,
2013-09-29 13:12:00,61.9,52.0,30.00,West,270,0.0,0.0,70,0.00,,---,0.00,VWS V14.00,2013-09-29 17:12:00,
2013-09-29 13:17:00,62.1,51.8,30.00,ENE,68,0.0,0.0,69,0.00,,---,0.00,VWS V14.00,2013-09-29 17:17:00,
2013-09-29 13:22:00,61.7,50.2,30.00,WSW,248,0.9,2.2,66,0.00,,---,0.00,VWS V14.00,2013-09-29 17:22:00,
2013-09-29 13:27:00,62.1,50.6,29.97,NNE,22,0.0,0.0,66,0.00,,---,0.00,VWS V14.00,2013-09-29 17:27:00,
2013-09-29 13:32:00,62.4,51.7,29.97,West,270,1.1,2.9,68,0.00,,---,0.00,VWS V14.00,2013-09-29 17:32:00,
2013-09-29 13:38:00,63.0,52.2,29.97,NNE,22,1.1,1.3,68,0.00,,---,0.00,VWS V14.00,2013-09-29 17:38:00,
2013-09-29 13:43:00,63.3,52.2,30.00,WNW,292,0.0,0.0,67,0.00,,---,0.00,VWS V14.00,2013-09-29 17:43:00,
2013-09-29 13:48:00,63.5,52.4,30.00,WSW,248,0.0,0.0,67,0.00,,---,0.00,VWS V14.00,2013-09-29 17:48:00,
2013-09-29 13:53:00,63.5,52.4,30.00,WNW,292,2.5,2.5,67,0.00,,---,0.00,VWS V14.00,2013-09-29 17:53:00,
2013-09-29 13:58:00,63.5,51.5,30.00,NNE,22,0.9,0.9,65,0.00,,---,0.00,VWS V14.00,2013-09-29 17:58:00,
2013-09-29 14:03:00,64.0,51.2,30.00,NNE,22,1.6,1.6,63,0.00,,---,0.00,VWS V14.00,2013-09-29 18:03:00,
2013-09-29 14:08:00,64.0,50.8,30.00,SW,225,2.7,2.7,62,0.00,,---,0.00,VWS V14.00,2013-09-29 18:08:00,
2013-09-29 14:13:00,64.0,50.8,30.00,SSE,158,1.6,1.6,62,0.00,,---,0.00,VWS V14.00,2013-09-29 18:13:00,
2013-09-29 14:18:00,65.8,52.9,30.00,SSW,202,0.0,1.1,63,0.00,,---,0.00,VWS V14.00,2013-09-29 18:18:00,
2013-09-29 14:23:00,66.0,52.6,29.97,NE,45,0.0,0.0,62,0.00,,---,0.00,VWS V14.00,2013-09-29 18:23:00,
2013-09-29 14:28:00,65.5,51.2,29.97,North,0,0.0,0.0,60,0.00,,---,0.00,VWS V14.00,2013-09-29 18:28:00,
2013-09-29 14:33:00,65.1,50.9,29.97,West,270,0.0,0.0,60,0.00,,---,0.00,VWS V14.00,2013-09-29 18:33:00,
2013-09-29 14:38:00,65.7,52.3,29.97,SW,225,1.1,1.6,62,0.00,,---,0.00,VWS V14.00,2013-09-29 18:38:00,
2013-09-29 14:43:00,65.8,51.6,29.97,WNW,292,0.0,1.3,60,0.00,,---,0.00,VWS V14.00,2013-09-29 18:43:00,
2013-09-29 14:48:00,65.7,51.0,29.97,NE,45,0.0,0.0,59,0.00,,---,0.00,VWS V14.00,2013-09-29 18:48:00,
2013-09-29 14:54:00,65.7,51.0,29.97,North,0,0.0,1.6,59,0.00,,---,0.00,VWS V14.00,2013-09-29 18:54:00,
2013-09-29 14:59:00,64.9,49.4,29.97,NNE,22,0.0,1.6,57,0.00,,---,0.00,VWS V14.00,2013-09-29 18:59:00,
2013-09-29 15:04:00,65.1,50.0,29.97,NNW,338,2.0,2.9,58,0.00,,---,0.00,VWS V14.00,2013-09-29 19:04:00,
2013-09-29 15:09:00,65.7,50.5,29.97,North,0,0.0,1.1,58,0.00,,---,0.00,VWS V14.00,2013-09-29 19:09:00,
2013-09-29 15:14:00,65.7,50.0,29.97,SW,225,0.0,0.0,57,0.00,,---,0.00,VWS V14.00,2013-09-29 19:14:00,
2013-09-29 15:19:00,66.6,50.9,29.97,North,0,2.7,3.4,57,0.00,,---,0.00,VWS V14.00,2013-09-29 19:19:00,
2013-09-29 15:24:00,66.9,51.2,29.97,NNE,22,1.3,2.0,57,0.00,,---,0.00,VWS V14.00,2013-09-29 19:24:00,
2013-09-29 15:29:00,65.8,49.2,29.97,North,0,2.5,2.5,55,0.00,,---,0.00,VWS V14.00,2013-09-29 19:29:00,
2013-09-29 15:34:00,65.3,48.7,29.97,ENE,68,0.0,0.0,55,0.00,,---,0.00,VWS V14.00,2013-09-29 19:34:00,
2013-09-29 15:39:00,65.1,49.0,29.97,NE,45,0.0,0.0,56,0.00,,---,0.00,VWS V14.00,2013-09-29 19:39:00,
2013-09-29 15:44:00,64.6,49.0,29.97,North,0,0.0,0.9,57,0.00,,---,0.00,VWS V14.00,2013-09-29 19:44:00,
2013-09-29 15:48:00,64.4,49.3,29.97,North,0,0.0,0.0,58,0.00,,---,0.00,VWS V14.00,2013-09-29 19:48:00,
2013-09-29 15:53:00,65.1,49.5,29.97,WSW,248,1.6,2.9,57,0.00,,---,0.00,VWS V14.00,2013-09-29 19:53:00,
2013-09-29 15:58:00,66.2,50.1,29.97,NE,45,1.1,2.0,56,0.00,,---,0.00,VWS V14.00,2013-09-29 19:58:00,
2013-09-29 16:03:00,65.8,49.7,29.97,NNE,22,0.0,1.3,56,0.00,,---,0.00,VWS V14.00,2013-09-29 20:03:00,
2013-09-29 16:08:00,65.3,49.2,29.97,NE,45,0.0,0.0,56,0.00,,---,0.00,VWS V14.00,2013-09-29 20:08:00,
2013-09-29 16:13:00,65.1,49.5,29.97,NNE,22,1.1,1.3,57,0.00,,---,0.00,VWS V14.00,2013-09-29 20:13:00,
2013-09-29 16:18:00,65.5,49.4,29.97,SW,225,0.0,0.0,56,0.00,,---,0.00,VWS V14.00,2013-09-29 20:18:00,
2013-09-29 16:23:00,65.7,49.6,29.94,North,0,2.0,3.6,56,0.00,,---,0.00,VWS V14.00,2013-09-29 20:23:00,
2013-09-29 16:28:00,65.8,49.2,29.94,NNE,22,0.0,0.0,55,0.00,,---,0.00,VWS V14.00,2013-09-29 20:28:00,
2013-09-29 16:33:00,65.8,49.2,29.94,NE,45,0.0,0.0,55,0.00,,---,0.00,VWS V14.00,2013-09-29 20:33:00,
2013-09-29 16:38:00,65.8,48.8,29.94,NE,45,0.9,1.3,54,0.00,,---,0.00,VWS V14.00,2013-09-29 20:38:00,
2013-09-29 16:44:00,65.8,48.8,29.94,NNE,22,1.6,2.2,54,0.00,,---,0.00,VWS V14.00,2013-09-29 20:44:00,
2013-09-29 16:49:00,66.2,49.6,29.94,NE,45,1.1,1.1,55,0.00,,---,0.00,VWS V14.00,2013-09-29 20:49:00,
2013-09-29 16:54:00,66.2,48.6,29.94,NE,45,0.0,2.5,53,0.00,,---,0.00,VWS V14.00,2013-09-29 20:54:00,
2013-09-29 16:59:00,66.2,49.1,29.94,East,90,0.0,0.0,54,0.00,,---,0.00,VWS V14.00,2013-09-29 20:59:00,
2013-09-29 17:04:00,66.2,49.1,29.94,ENE,68,0.0,0.0,54,0.00,,---,0.00,VWS V14.00,2013-09-29 21:04:00,
2013-09-29 17:09:00,66.0,47.9,29.94,NE,45,2.0,2.0,52,0.00,,---,0.00,VWS V14.00,2013-09-29 21:09:00,
2013-09-29 17:14:00,65.7,47.6,29.94,NE,45,1.1,1.1,52,0.00,,---,0.00,VWS V14.00,2013-09-29 21:14:00,
2013-09-29 17:19:00,65.7,48.6,29.94,WSW,248,0.0,0.0,54,0.00,,---,0.00,VWS V14.00,2013-09-29 21:19:00,
2013-09-29 17:24:00,65.7,48.6,29.94,NNE,22,0.9,1.1,54,0.00,,---,0.00,VWS V14.00,2013-09-29 21:24:00,
2013-09-29 17:29:00,65.5,48.4,29.94,SE,135,0.0,0.0,54,0.00,,---,0.00,VWS V14.00,2013-09-29 21:29:00,
2013-09-29 17:34:00,65.5,48.4,29.94,NNE,22,1.1,1.3,54,0.00,,---,0.00,VWS V14.00,2013-09-29 21:34:00,
2013-09-29 17:40:00,65.5,48.9,29.94,NNE,22,1.3,1.3,55,0.00,,---,0.00,VWS V14.00,2013-09-29 21:40:00,
2013-09-29 17:45:00,65.5,49.4,29.94,North,0,2.5,2.5,56,0.00,,---,0.00,VWS V14.00,2013-09-29 21:45:00,
2013-09-29 17:50:00,65.5,49.4,29.94,NE,45,1.1,3.1,56,0.00,,---,0.00,VWS V14.00,2013-09-29 21:50:00,
2013-09-29 17:55:00,65.7,49.6,29.94,NE,45,0.0,0.0,56,0.00,,---,0.00,VWS V14.00,2013-09-29 21:55:00,
2013-09-29 18:00:00,65.5,49.4,29.94,ENE,68,1.1,1.1,56,0.00,,---,0.00,VWS V14.00,2013-09-29 22:00:00,
2013-09-29 18:05:00,65.5,49.4,29.94,WSW,248,0.0,2.2,56,0.00,,---,0.00,VWS V14.00,2013-09-29 22:05:00,
2013-09-29 18:10:00,65.3,48.7,29.94,NNE,22,1.3,1.3,55,0.00,,---,0.00,VWS V14.00,2013-09-29 22:10:00,
2013-09-29 18:15:00,65.1,48.6,29.94,NNE,22,1.3,1.3,55,0.00,,---,0.00,VWS V14.00,2013-09-29 22:15:00,
2013-09-29 18:20:00,64.8,48.7,29.94,NNE,22,0.0,0.0,56,0.00,,---,0.00,VWS V14.00,2013-09-29 22:20:00,
2013-09-29 18:25:00,64.6,49.5,29.94,ENE,68,0.0,0.0,58,0.00,,---,0.00,VWS V14.00,2013-09-29 22:25:00,
2013-09-29 18:30:00,64.4,49.3,29.94,ENE,68,0.0,0.0,58,0.00,,---,0.00,VWS V14.00,2013-09-29 22:30:00,
2013-09-29 18:35:00,64.0,50.3,29.94,ENE,68,0.0,0.0,61,0.00,,---,0.00,VWS V14.00,2013-09-29 22:35:00,
2013-09-29 18:40:00,63.7,50.9,29.94,ENE,68,0.0,0.0,63,0.00,,---,0.00,VWS V14.00,2013-09-29 22:40:00,
2013-09-29 18:45:00,63.5,50.3,29.94,ENE,68,0.0,0.0,62,0.00,,---,0.00,VWS V14.00,2013-09-29 22:45:00,
2013-09-29 18:50:00,63.3,50.1,29.94,ENE,68,0.0,0.0,62,0.00,,---,0.00,VWS V14.00,2013-09-29 22:50:00,
2013-09-29 18:55:00,63.1,50.3,29.94,ENE,68,0.0,0.0,63,0.00,,---,0.00,VWS V14.00,2013-09-29 22:55:00,
2013-09-29 19:01:00,62.8,50.4,29.94,ENE,68,0.0,0.0,64,0.00,,---,0.00,VWS V14.00,2013-09-29 23:01:00,
2013-09-29 19:06:00,62.4,50.5,29.94,ENE,68,0.0,0.0,65,0.00,,---,0.00,VWS V14.00,2013-09-29 23:06:00,
2013-09-29 19:11:00,62.2,50.3,29.94,ENE,68,0.0,0.0,65,0.00,,---,0.00,VWS V14.00,2013-09-29 23:11:00,
2013-09-29 19:16:00,61.9,50.4,29.94,ENE,68,0.0,0.0,66,0.00,,---,0.00,VWS V14.00,2013-09-29 23:16:00,
2013-09-29 19:21:00,61.5,50.5,29.94,ENE,68,0.0,0.0,67,0.00,,---,0.00,VWS V14.00,2013-09-29 23:21:00,
2013-09-29 19:26:00,61.2,50.5,29.94,ENE,68,0.0,0.0,68,0.00,,---,0.00,VWS V14.00,2013-09-29 23:26:00,
2013-09-29 19:31:00,61.0,50.4,29.94,ENE,68,0.0,0.0,68,0.00,,---,0.00,VWS V14.00,2013-09-29 23:31:00,
2013-09-29 19:36:00,60.6,50.4,29.94,ENE,68,0.0,0.0,69,0.00,,---,0.00,VWS V14.00,2013-09-29 23:36:00,
2013-09-29 19:41:00,60.3,50.1,29.94,ENE,68,0.0,0.0,69,0.00,,---,0.00,VWS V14.00,2013-09-29 23:41:00,
2013-09-29 19:46:00,60.1,50.3,29.94,ENE,68,0.0,0.0,70,0.00,,---,0.00,VWS V14.00,2013-09-29 23:46:00,
2013-09-29 19:51:00,59.7,50.3,29.94,ENE,68,0.0,0.0,71,0.00,,---,0.00,VWS V14.00,2013-09-29 23:51:00,
2013-09-29 19:56:00,59.4,50.0,29.94,ENE,68,0.0,0.0,71,0.00,,---,0.00,VWS V14.00,2013-09-29 23:56:00,
2013-09-29 20:01:00,59.2,49.8,29.94,ENE,68,0.0,0.0,71,0.00,,---,0.00,VWS V14.00,2013-09-30 00:01:00,
2013-09-29 20:06:00,58.8,49.8,29.94,ENE,68,0.0,0.0,72,0.00,,---,0.00,VWS V14.00,2013-09-30 00:06:00,
2013-09-29 20:11:00,58.6,49.7,29.97,ENE,68,0.0,0.0,72,0.00,,---,0.00,VWS V14.00,2013-09-30 00:11:00,
2013-09-29 20:16:00,58.5,49.8,29.97,ENE,68,0.0,0.0,73,0.00,,---,0.00,VWS V14.00,2013-09-30 00:16:00,
2013-09-29 20:22:00,58.3,49.7,29.97,West,270,0.0,0.0,73,0.00,,---,0.00,VWS V14.00,2013-09-30 00:22:00,
2013-09-29 20:27:00,58.1,49.9,29.97,West,270,0.0,0.0,74,0.00,,---,0.00,VWS V14.00,2013-09-30 00:27:00,
2013-09-29 20:32:00,58.1,50.2,29.97,West,270,0.0,0.0,75,0.00,,---,0.00,VWS V14.00,2013-09-30 00:32:00,
2013-09-29 20:37:00,58.1,50.2,29.97,West,270,0.0,0.0,75,0.00,,---,0.00,VWS V14.00,2013-09-30 00:37:00,
2013-09-29 20:42:00,57.9,50.4,29.97,West,270,0.0,0.0,76,0.00,,---,0.00,VWS V14.00,2013-09-30 00:42:00,
2013-09-29 20:47:00,57.9,50.4,29.97,West,270,0.0,0.0,76,0.00,,---,0.00,VWS V14.00,2013-09-30 00:47:00,
2013-09-29 20:52:00,57.9,50.4,29.97,West,270,0.0,0.0,76,0.00,,---,0.00,VWS V14.00,2013-09-30 00:52:00,
2013-09-29 20:57:00,57.7,50.2,29.97,West,270,0.0,0.0,76,0.00,,---,0.00,VWS V14.00,2013-09-30 00:57:00,
2013-09-29 21:02:00,57.6,50.4,29.97,West,270,0.0,0.0,77,0.00,,---,0.00,VWS V14.00,2013-09-30 01:02:00,
2013-09-29 21:07:00,57.6,50.4,29.97,West,270,0.0,0.0,77,0.00,,---,0.00,VWS V14.00,2013-09-30 01:07:00,
2013-09-29 21:13:00,57.4,50.2,29.97,West,270,0.0,0.0,77,0.00,,---,0.00,VWS V14.00,2013-09-30 01:13:00,
2013-09-29 21:18:00,57.2,50.4,29.97,West,270,0.0,0.0,78,0.00,,---,0.00,VWS V14.00,2013-09-30 01:18:00,
2013-09-29 21:23:00,57.0,50.2,29.97,West,270,0.0,0.0,78,0.00,,---,0.00,VWS V14.00,2013-09-30 01:23:00,
2013-09-29 21:28:00,56.8,50.4,29.97,West,270,0.0,0.0,79,0.00,,---,0.00,VWS V14.00,2013-09-30 01:28:00,
2013-09-29 21:33:00,56.8,50.4,29.97,West,270,0.0,0.0,79,0.00,,---,0.00,VWS V14.00,2013-09-30 01:33:00,
2013-09-29 21:38:00,56.8,50.7,29.97,West,270,0.0,0.0,80,0.00,,---,0.00,VWS V14.00,2013-09-30 01:38:00,
2013-09-29 21:43:00,56.7,50.2,29.97,West,270,0.0,0.0,79,0.00,,---,0.00,VWS V14.00,2013-09-30 01:43:00,
2013-09-29 21:48:00,56.7,50.6,29.97,West,270,0.0,0.0,80,0.00,,---,0.00,VWS V14.00,2013-09-30 01:48:00,
2013-09-29 21:53:00,56.5,50.4,29.97,West,270,0.0,0.0,80,0.00,,---,0.00,VWS V14.00,2013-09-30 01:53:00,
2013-09-29 21:58:00,56.3,50.2,29.97,West,270,0.0,0.0,80,0.00,,---,0.00,VWS V14.00,2013-09-30 01:58:00,
2013-09-29 22:03:00,56.3,50.2,29.97,West,270,0.0,0.0,80,0.00,,---,0.00,VWS V14.00,2013-09-30 02:03:00,
2013-09-29 22:08:00,56.3,50.5,29.97,West,270,0.0,0.0,81,0.00,,---,0.00,VWS V14.00,2013-09-30 02:08:00,
2013-09-29 22:13:00,56.3,50.5,29.97,West,270,0.0,0.0,81,0.00,,---,0.00,VWS V14.00,2013-09-30 02:13:00,
2013-09-29 22:18:00,56.5,51.1,29.97,West,270,0.0,0.0,82,0.00,,---,0.00,VWS V14.00,2013-09-30 02:18:00,
2013-09-29 22:23:00,56.5,51.1,29.97,West,270,0.0,0.0,82,0.00,,---,0.00,VWS V14.00,2013-09-30 02:23:00,
2013-09-29 22:28:00,56.5,51.1,29.97,West,270,0.0,0.0,82,0.00,,---,0.00,VWS V14.00,2013-09-30 02:28:00,
2013-09-29 22:33:00,56.7,51.2,29.97,WSW,248,0.0,0.0,82,0.00,,---,0.00,VWS V14.00,2013-09-30 02:33:00,
2013-09-29 22:38:00,56.7,51.2,29.97,West,270,0.0,0.0,82,0.00,,---,0.00,VWS V14.00,2013-09-30 02:38:00,
2013-09-29 22:43:00,56.7,51.2,29.97,West,270,0.0,0.0,82,0.00,,---,0.00,VWS V14.00,2013-09-30 02:43:00,
2013-09-29 22:48:00,56.5,51.1,29.97,West,270,0.0,0.0,82,0.00,,---,0.00,VWS V14.00,2013-09-30 02:48:00,
2013-09-29 22:53:00,56.5,51.1,29.97,West,270,0.0,0.0,82,0.00,,---,0.00,VWS V14.00,2013-09-30 02:53:00,
2013-09-29 22:58:00,56.5,51.1,29.97,West,270,0.0,0.0,82,0.00,,---,0.00,VWS V14.00,2013-09-30 02:58:00,
2013-09-29 23:03:00,56.5,51.1,29.97,NW,315,0.0,0.0,82,0.00,,---,0.00,VWS V14.00,2013-09-30 03:03:00,
2013-09-29 23:08:00,56.7,51.2,29.97,NW,315,0.0,0.0,82,0.00,,---,0.00,VWS V14.00,2013-09-30 03:08:00,
2013-09-29 23:13:00,56.7,51.2,29.97,North,0,0.0,0.0,82,0.00,,---,0.00,VWS V14.00,2013-09-30 03:13:00,
2013-09-29 23:18:00,56.7,51.2,29.97,North,0,0.0,0.0,82,0.00,,---,0.00,VWS V14.00,2013-09-30 03:18:00,
2013-09-29 23:23:00,56.7,51.2,29.97,North,0,0.0,0.0,82,0.00,,---,0.00,VWS V14.00,2013-09-30 03:23:00,
2013-09-29 23:28:00,56.7,51.2,29.97,North,0,0.0,0.0,82,0.00,,---,0.00,VWS V14.00,2013-09-30 03:28:00,
2013-09-29 23:33:00,56.7,51.2,29.97,North,0,0.0,0.0,82,0.00,,---,0.00,VWS V14.00,2013-09-30 03:33:00,
2013-09-29 23:38:00,56.7,51.2,29.97,North,0,0.0,0.0,82,0.00,,---,0.00,VWS V14.00,2013-09-30 03:38:00,
2013-09-29 23:43:00,56.7,51.2,29.97,North,0,0.0,0.0,82,0.00,,---,0.00,VWS V14.00,2013-09-30 03:43:00,
2013-09-29 23:48:00,56.7,51.2,29.97,North,0,0.0,0.0,82,0.00,,---,0.00,VWS V14.00,2013-09-30 03:48:00,
2013-09-29 23:53:00,56.7,51.2,29.97,North,0,0.0,0.0,82,0.00,,---,0.00,VWS V14.00,2013-09-30 03:53:00,
2013-09-29 23:59:00,56.7,51.2,29.97,North,0,0.0,0.0,82,0.00,,---,0.00,VWS V14.00,2013-09-30 03:59:00,